#timestamp,LO_Frequency,Hit,StdDev 
1515142815.8,286046993.9,N
1515142835.7,286046996.2,N
1515142855.5,286046995.6,N
1515142875.3,286046995.1,N
1515142895.2,286046995.3,N
1515142915.0,286046995.1,N
1515142915.9,286046995.1,N
1515142935.8,286046995.6,N
1515142955.6,286046995.8,N
1515142975.5,286046993.7,Y
1515142995.3,286046999.4,P
1515143015.1,286046999.2,N
1515143035.9,286046999.1,N
1515143055.7,286046998.6,N
1515143075.5,286046998.4,N
1515143095.4,286046998.8,N
1515143115.2,286046998.9,N
1515143135.1,286046996.5,Y
1515143136.0,286046996.5,P
1515143155.8,286046998.6,N
1515143175.6,286046999.5,N
1515143195.5,286046997.3,N
1515143215.3,286046999.1,N
1515143235.2,286046998.6,N
1515143255.9,286046997.2,N
1515143275.7,286046995.3,Y
1515143295.6,286046996.5,P
1515143315.4,286046998.8,N
1515143335.2,286046998.4,N
1515143355.1,286047000.7,N
1515143356.0,286047000.7,N
1515143375.8,286046998.3,N
1515143395.7,286046998.7,N
1515143415.5,286046998.7,N
1515143435.3,286046996.6,N
1515143455.2,286046999.2,N
1515143475.0,286046996.8,N
1515143475.9,286046996.8,N
1515143495.8,286046999.4,N
1515143515.6,286046997.3,N
1515143535.4,286046996.5,N
1515143555.3,286046998.2,N
1515143575.1,286046999.4,N
1515143595.8,286046999.0,N
1515143615.7,286046997.7,N
1515143635.5,286046997.6,N
1515143655.4,286046997.4,N
1515143675.2,286046997.3,N
1515143695.0,286046999.3,N
1515143695.9,286046999.3,N
1515143715.8,286046999.3,N
1515143735.6,286046998.9,N
1515143755.4,286046998.8,N
1515143775.3,286046998.7,N
1515143795.1,286046999.4,N
1515143815.9,286046997.0,N
1515143835.7,286046998.0,N
1515143855.5,286046995.5,Y
1515143875.4,286046996.7,P
1515143895.2,286046999.4,N
1515143915.1,286046999.4,N
1515143916.0,286046999.4,N
1515143935.8,286046999.6,N
1515143955.6,286046998.8,N
1515143975.5,286046998.8,N
1515143995.3,286046998.8,N
1515144015.1,286046999.1,N
1515144035.9,286046999.0,N
1515144055.7,286046996.9,Y
1515144075.6,286046996.5,P
1515144095.4,286046999.5,N
1515144115.2,286046999.0,N
1515144135.1,286047000.7,N
1515144136.0,286047000.7,N
1515144155.8,286046998.9,N
1515144175.7,286046998.7,N
1515144195.5,286047000.9,N
1515144215.3,286047002.3,N
1515144235.2,286047002.3,N
1515144255.9,286047002.3,N
1515144275.7,286047002.6,N
1515144295.6,286047002.3,N
1515144315.4,286047002.6,N
1515144335.3,286047003.9,N
1515144355.1,286047004.2,N
1515144356.0,286047004.2,N
1515144375.8,286047003.5,N
1515144395.7,286047001.7,N
1515144415.5,286047004.3,N
1515144435.3,286047001.4,N
1515144455.2,286047003.5,N
1515144475.0,286047003.9,N
1515144475.9,286047003.9,N
1515144495.8,286047002.2,N
1515144515.6,286047001.5,N
1515144535.4,286047003.2,N
1515144555.3,286047005.9,N
1515144575.1,286047005.4,N
1515144595.8,286047005.7,N
1515144615.7,286047007.6,Y
1515144635.5,286047002.8,P
1515144655.4,286047000.6,N
1515144675.2,286047001.0,N
1515144695.0,286047001.4,N
1515144695.9,286047001.4,N
1515144715.8,286047002.0,N
1515144735.6,286047001.5,N
1515144755.4,286047001.5,N
1515144775.3,286047001.4,N
1515144795.1,286047003.8,Y
1515144815.9,286047002.1,P
1515144835.7,286046999.9,N
1515144855.5,286047002.7,N
1515144875.4,286046999.8,N
1515144895.2,286047002.8,N
1515144915.1,286046999.8,N
1515144916.0,286046999.8,N
1515144935.8,286047000.9,N
1515144955.6,286047001.1,N
1515144975.5,286046999.7,N
1515144995.3,286047002.5,N
1515145015.1,286047001.7,N
1515145035.9,286047002.2,N
1515145055.7,286047002.0,N
1515145075.6,286047001.0,N
1515145095.4,286047000.1,N
1515145115.2,286047000.6,N
1515145135.1,286046998.2,N
1515145136.0,286046998.2,N
1515145155.8,286047000.2,N
1515145175.7,286047002.6,N
1515145195.5,286047002.3,N
1515145215.3,286046998.5,N
1515145235.2,286047000.6,N
1515145255.0,286046997.1,N
1515145255.9,286046997.1,N
1515145275.7,286046997.0,N
1515145295.6,286046999.0,N
1515145315.4,286046998.5,N
1515145335.3,286047001.0,N
1515145355.1,286046998.1,N
1515145375.8,286046999.8,N
1515145395.7,286046999.7,N
1515145415.5,286047004.3,N
1515145435.3,286047004.3,N
1515145455.2,286047001.3,N
1515145475.0,286047001.5,N
1515145475.9,286047001.5,N
1515145495.8,286047004.3,N
1515145515.6,286047001.3,N
1515145535.5,286047001.6,N
1515145555.3,286047002.7,N
1515145575.1,286047002.3,N
1515145595.9,286047003.1,N
1515145615.7,286047003.9,N
1515145635.5,286047003.5,N
1515145655.4,286047001.6,N
1515145675.2,286047001.8,N
1515145695.1,286047001.5,N
1515145696.0,286047001.5,N
1515145715.8,286047001.8,N
1515145735.6,286047002.2,N
1515145755.5,286047002.7,N
1515145775.3,286047001.5,N
1515145795.1,286047001.9,N
1515145815.9,286047001.9,N
1515145835.7,286047001.7,N
1515145855.6,286047003.2,N
1515145875.4,286047005.5,Y
1515145895.2,286047004.1,P
1515145915.1,286047001.8,N
1515145916.0,286047001.8,N
1515145935.8,286047001.4,N
1515145955.7,286047001.5,N
1515145975.5,286047004.4,Y
1515145995.3,286047001.0,P
1515146015.2,286047000.3,N
1515146035.3,286047002.5,P
1515146055.2,286047000.1,N
1515146075.0,286047000.2,N
1515146075.9,286047000.2,N
1515146095.8,286047000.5,N
1515146115.6,286047000.3,N
1515146135.4,286047000.3,N
1515146155.3,286047000.5,N
1515146175.1,286047001.0,N
1515146195.9,286047000.9,N
1515146215.7,286047000.4,N
1515146235.5,286046998.2,N
1515146255.4,286046998.2,N
1515146275.2,286046999.1,N
1515146295.0,286046997.2,N
1515146295.9,286046997.2,N
1515146315.8,286046997.7,N
1515146335.6,286046996.9,N
1515146355.5,286046999.4,N
1515146375.3,286046998.9,N
1515146395.1,286046998.6,N
